Location: Sweet Grass
(48.9965°N, 111.9649°W)
Time: 08:36:34
(UTC+00:00)

DIWATA 2B (PO-101) - Pass Details

Date: 08 April 2023
Orbit: 581 x 594 km, 98.0° (Epoch: 03 June)

Event Time Altitude Azimuth Distance (km) Brightness Sun altitude
Exits shadow 09:05:25 31° 51° (NE) 1,030 ? -30.1°
Drops below altitude 10° 09:08:36 10° 4° (N) 1,915 ? -29.8°
Sets 09:10:55 0° 354° (N) 2,821 ? -29.6°
